GFSGBSN_850_dewp_012.txt.gz
Dewpoint
2 7 7 8 9 9 8 8 7 2 -1 -6 -7 -8 -7 -6 -4 -2 -2 -2 -3 -3 -3 -3 -6 -11 -12 5 2 -2 -5 -6 -13 -8 -2 -7 -10 -10 -8 -9 -11 -10 -9 -10 -8 -6 -4
-31 -13 6 7 8 8 8 8 8 5 1 -2 -7 -7 -6 -5 -3 -1 -1 -2 -3 -3 -3 -4 -7 -10 -7 2 -3 -0 -6 -7 -8 -6 -4 -8 -8 -9 -9 -11 -11 -10 -9 -12 -10 -8 -0
-30 -31 -24 7 7 7 7 7 8 7 2 -0 -5 -6 -6 -4 -1 -1 -1 -2 -3 -4 -3 -5 -9 -10 2 -0 -2 1 -2 -5 -3 -6 -6 -8 -8 -8 -8 -6 -9 -8 -8 -11 -7 -7 -3
-31 -31 -32 -25 6 8 9 8 8 9 4 1 -4 -5 -5 -2 -0 -1 -1 -2 -3 -4 -5 -8 -10 -8 4 -1 -3 -2 -0 -1 -2 -4 -4 -5 -4 -5 -5 -5 -8 -9 -10 -8 -4 -5 -7
-30 -31 -32 -32 -24 5 8 7 7 9 6 2 -1 -4 -4 -1 0 0 -0 -3 -5 -6 -8 -9 -6 1 2 -1 -4 -5 -4 -3 -4 -3 -3 -4 -4 -4 -4 -3 -7 -7 -6 -1 -3 -5 -11
-23 -29 -31 -32 -33 -17 7 8 6 8 8 3 1 -3 -3 0 1 1 -0 -4 -7 -8 -7 -6 -4 4 -4 -4 -6 -6 -6 -5 -4 -3 -3 -4 -5 -3 -3 -5 -5 -5 -6 -4 -5 -8 -16
-26 -23 -25 -29 -32 -31 -14 7 5 9 9 4 2 -2 -2 1 1 1 -1 -6 4 5 4 -0 -0 -2 -6 -7 -5 -5 -8 -7 -5 -3 -3 -4 -3 -2 -5 -4 -5 -6 -7 -8 -9 -14 -14
-14 -16 -13 -20 -30 -32 -32 -2 7 9 9 5 3 -2 -2 2 2 2 -1 4 5 7 6 1 -6 -1 -2 -3 -5 -7 -8 -8 -5 -4 -7 -5 -2 -5 -5 -6 -5 -7 -7 -10 -11 -12 -11
-2 -10 -14 -6 -12 -23 -31 -15 7 8 8 6 4 -1 -2 2 2 1 -2 -5 5 5 6 1 -7 -5 -4 -5 -6 -9 -8 -8 -7 -6 -6 1 -1 -6 -6 -5 -5 -8 -7 -5 -7 -11 -11
-1 1 -1 -5 -2 -9 -18 -25 4 7 8 8 4 0 -2 2 2 0 -2 -6 -2 2 6 -0 -4 -4 -4 -5 -6 -10 -8 -9 -8 -6 -5 2 -1 -5 -6 -7 -9 -1 -2 -6 -3 1 -4
-0 1 1 -0 2 1 -8 -18 1 6 7 8 4 1 -2 3 7 5 8 4 6 9 7 -3 -4 -5 -6 -7 -8 -9 -8 -7 -6 -7 -2 -3 -5 -5 -5 -4 -5 -1 -2 -3 -6 -4 -1
-2 -1 -0 -1 1 2 1 -10 2 5 7 8 5 1 -0 4 3 2 7 8 10 10 7 -4 -6 -5 -6 -7 -8 -8 -8 -8 -9 -6 -5 -1 -4 -4 -3 -5 -5 -3 -3 -2 -7 -4 7
-3 -1 -0 -0 -1 0 1 -5 0 5 7 8 5 3 -1 4 5 4 4 11 9 6 -4 -4 -5 -6 -6 -6 -7 -7 -6 -8 -6 -3 -3 -4 -5 -6 -6 -7 -6 -5 -3 -0 4 6 5
-3 -3 -1 -1 -1 -0 1 -2 -2 4 7 8 5 4 0 3 7 7 8 11 7 -1 -3 -10 -8 -7 -5 -7 -7 -8 -8 -8 -9 -8 -5 -2 -2 -5 -7 -7 -0 -3 -7 3 9 9 5
-4 -2 -1 -0 -0 -1 1 -1 -2 4 5 7 6 6 2 2 4 9 10 11 5 -2 -5 -6 -9 -6 -6 -7 -8 -6 -7 -8 -10 -9 -3 4 1 -3 -5 -7 -6 -8 -3 -5 -1 6 5
-3 -4 -1 -0 0 -0 -0 -1 -2 2 4 7 6 5 1 2 4 8 10 8 3 -3 -7 -7 -7 -7 -5 -5 -6 -5 -5 -7 -9 -9 -4 7 7 2 -4 -4 -5 -3 -6 0 0 3 3
-4 -3 -1 -0 0 1 -0 -1 -1 1 4 6 6 4 2 3 4 7 9 6 3 -3 -6 -5 -7 -7 -7 -4 -7 -5 -5 -6 -5 -5 -6 -4 4 -1 -2 -2 -6 -3 -3 -4 -4 3 9
-4 -2 -1 -1 -1 1 -0 -2 -2 2 4 6 5 4 6 4 5 1 7 3 0 -2 -5 -3 -5 -7 -7 -5 -5 -6 -1 -2 -5 -6 -3 -6 -3 6 -1 -5 -5 -4 -1 -4 8 3 7
-5 -1 -2 -2 -2 0 0 -1 -1 1 4 6 4 5 7 4 4 7 4 3 -0 -1 -2 -1 -4 -4 -7 -4 -3 -5 -6 2 1 -3 -2 -3 -1 5 1 -0 -2 -2 -6 -4 -3 5 6
-4 -3 -3 -3 -1 -1 0 -1 -1 1 4 6 3 7 9 8 2 3 5 3 1 -1 -4 -3 -4 -5 -5 -5 -5 -3 -4 2 1 -0 -0 1 -1 -1 5 -0 -1 1 -4 -7 -3 8 5
-3 -4 -5 -4 -2 -1 0 -1 -0 0 3 6 5 5 6 8 7 5 4 2 1 -1 -2 -3 -3 -5 -2 -1 -2 -1 -2 3 2 2 0 0 2 -1 -3 -3 -1 -1 -3 -4 -5 -2 1
-5 -4 -4 -2 -2 -0 -0 -0 0 1 3 5 5 3 5 5 4 6 5 4 0 -3 -1 -0 -1 -3 -3 -0 -2 -0 -1 4 3 3 1 1 5 4 5 0 -1 -0 -2 -4 -5 -6 -6
-5 -3 -2 -2 -1 0 -0 0 1 2 3 4 5 5 4 5 5 6 7 3 0 -2 -2 -2 -2 -2 -1 1 2 3 3 2 1 4 4 5 9 8 6 2 3 5 3 -1 -2 -5 -6
-5 -4 -1 0 -1 0 -1 -1 1 2 3 4 4 6 5 7 5 5 4 1 -2 -2 1 -0 -1 0 4 3 2 2 1 2 2 3 2 8 8 8 9 5 7 -3 -6 -6 -5 -5 -7
-3 -1 -0 -0 -0 -1 -1 -1 1 2 3 5 4 6 7 9 5 3 4 2 -3 -4 1 0 5 5 3 3 6 6 9 6 2 -1 1 3 7 9 10 6 -1 -4 -8 -7 -6 -5 -5
-4 -2 -2 -2 -1 -2 -1 1 1 2 2 5 6 6 8 8 7 1 1 -1 2 6 6 6 5 4 3 8 10 6 8 3 5 4 -1 -0 6 9 7 9 9 2 -4 -3 -5 0 -5
-3 -4 -4 -3 -2 -1 -0 -0 1 1 3 4 5 7 9 7 3 -0 0 0 -3 6 7 5 6 5 6 11 10 10 9 1 7 7 8 7 8 8 8 9 7 -3 -4 -4 1 4 -2
-4 -6 -5 -3 -1 -1 -1 -0 0 2 3 4 5 7 9 5 0 -1 -3 -4 -2 3 9 6 6 6 9 10 11 10 10 8 6 1 6 7 9 9 9 9 8 -5 -4 2 3 -1 -3
-8 -8 -5 -2 -2 -1 -1 -1 1 2 4 5 5 7 6 8 6 3 2 1 -1 -2 4 6 4 6 7 8 9 11 8 7 7 8 0 6 5 8 5 7 -1 -5 -4 -4 -3 -2 -2

GFSGBSN_850_dewp_015.txt.gz
Dewpoint
-32 -22 -3 7 8 7 8 8 9 8 8 4 -1 -7 -7 -7 -6 -5 -4 -3 -2 -3 -5 -5 -5 -9 -12 -1 -2 -0 -6 -8 -14 -10 -6 -4 -3 -4 -8 -9 -8 -9 -10 -9 -6 1 2
-32 -33 -32 -22 2 7 7 8 7 8 9 7 1 -4 -7 -7 -6 -4 -2 -2 -2 -4 -5 -5 -6 -9 -9 5 0 -0 -4 -7 -9 -9 -7 -4 -5 -8 -8 -8 -7 -11 -10 -12 -10 -3 -0
-33 -33 -32 -33 -31 -4 7 7 8 7 9 8 4 -1 -6 -7 -5 -3 -1 -1 -2 -4 -5 -6 -8 -9 -8 -10 -1 1 0 -6 -7 -10 -6 -6 -6 -4 -4 -4 -5 -7 -9 -11 -5 -0 -0
-32 -31 -33 -33 -33 -32 -4 5 6 7 9 9 6 1 -4 -6 -5 -2 -0 -1 -3 -5 -7 -7 -9 -7 -8 -3 -3 -2 -2 -1 -2 -4 -4 -5 -4 -4 -5 -4 -4 -7 -8 -7 -4 -4 -1
-29 -30 -32 -33 -34 -34 -33 -12 6 8 7 8 8 3 -2 -5 -5 -1 0 -1 -5 -7 -8 -9 -2 7 -1 -1 -3 -6 -3 -1 -1 -2 -3 -3 -4 -4 -3 -2 -1 -6 -3 -0 -4 -6 -4
-22 -28 -31 -31 -32 -33 -34 -32 -6 7 7 7 9 4 0 -5 -4 -0 1 -2 -6 -8 -8 -9 -3 3 -5 -2 -7 -5 -5 -4 -5 -3 -3 -3 -5 -2 -2 -1 0 -4 -1 -1 -2 -6 -5
-14 -23 -27 -28 -30 -31 -33 -34 -31 3 7 6 9 6 1 -5 -3 1 1 -2 6 6 3 -8 -4 -6 -3 -4 -5 -5 -7 -7 -5 -3 -2 -3 -3 -0 -2 -3 -4 -5 -6 -2 -4 -6 -9
-5 -7 -20 -24 -28 -30 -31 -30 -33 -24 6 6 8 7 2 -4 -3 1 2 -2 5 4 5 4 5 -1 -1 -1 -4 -5 -6 -7 -4 -1 -3 -3 -1 -4 -5 -4 -3 -3 -2 -3 -7 -12 -13
1 2 -2 -11 -17 -25 -30 -31 -33 -33 -0 5 7 8 3 -4 -1 2 1 -4 -2 4 6 4 2 -3 -4 -3 -3 -5 -7 -8 -5 -2 -4 -1 -2 -2 -3 -3 -3 -3 -1 -3 -5 -9 -8
1 1 -0 -3 -11 -13 -17 -28 -30 -32 -6 5 8 8 4 -2 0 6 2 2 -6 -3 8 4 2 -7 -7 -5 -3 -6 -7 -8 -6 -4 -0 -0 -3 -2 -2 -2 -4 -0 -3 -1 -3 -2 -1
-0 0 0 1 -3 -5 -4 -9 -21 -30 -7 4 7 8 5 -2 4 6 8 8 7 8 10 -1 -3 -5 -5 -4 -6 -7 -7 -7 -6 -3 -3 -1 0 0 0 -2 -4 -2 -3 -2 -1 -2 2
-0 -2 -1 -1 1 1 1 2 -3 -20 -4 3 7 8 6 -1 2 3 7 9 8 9 9 1 -3 -3 -3 -4 -6 -7 -9 -8 -7 -5 -5 -3 -4 -2 -2 -4 -4 -3 -3 -2 -1 -0 5
0 -1 -2 -1 -1 0 1 1 2 -11 0 4 7 8 6 -0 2 7 3 8 9 9 -0 -1 -3 -3 -3 -3 -4 -6 -5 -4 -4 -2 0 -2 -4 -1 -1 -3 -3 -1 1 4 3 7 6
-2 -3 -0 -2 -2 -0 0 -0 2 -1 -3 4 7 8 6 1 4 7 7 10 10 4 2 -5 -3 -3 -2 -4 -4 -5 -3 -3 -6 -5 -1 2 3 -1 -4 -6 -1 -1 -1 5 5 9 7
-4 -1 -1 -2 -4 -2 -0 0 0 1 -2 5 7 7 6 2 4 8 9 10 7 5 -3 -1 -5 -3 -3 -4 -6 -4 -5 -5 -7 -6 -2 3 3 1 -1 -2 -3 -3 0 -1 7 7 9
-2 -2 -1 -1 -4 -4 -2 -0 -1 1 -1 4 6 6 6 2 2 7 8 8 7 1 0 -3 -1 -4 -2 -3 -4 -4 -3 -5 -6 -8 1 6 5 4 2 1 -3 -3 -3 2 4 7 5
-4 -2 -1 -2 -3 -4 -2 -1 -1 1 -1 4 5 5 6 5 2 7 7 6 5 3 1 0 -1 -4 -4 -2 -2 -3 -2 -5 -6 -1 2 4 5 6 3 2 -2 -1 -2 -3 -1 4 5
-3 -3 -3 -2 -4 -5 -1 1 -0 1 -1 4 6 6 3 2 6 5 6 5 4 3 2 2 -3 -3 -3 -2 -2 -3 -1 2 -1 -3 1 3 5 7 5 -2 -4 -4 -2 1 3 0 5
-5 -5 -5 -4 -5 -6 -0 0 1 -0 -1 4 5 5 5 1 4 6 2 4 5 4 3 0 -0 -2 -2 -1 3 -3 2 1 -0 -0 -1 1 -0 3 2 1 0 -2 -3 -4 3 3 3
-5 -6 -6 -6 -6 -5 -0 0 1 -0 -0 4 5 6 7 6 2 2 3 3 5 3 3 1 -0 -0 -1 -1 -0 -0 4 3 1 1 -1 1 1 1 3 2 1 1 -1 -3 -1 3 2
-5 -5 -6 -7 -8 -1 -0 0 1 1 -0 4 5 4 5 8 7 5 2 2 5 5 2 0 -0 0 -0 -2 -2 -1 5 4 3 1 0 2 2 -0 1 2 0 -1 0 -0 -4 0 1
-5 -5 -8 -8 -1 -1 -1 -1 1 1 0 4 5 3 5 5 5 6 3 4 4 3 2 1 2 -1 -2 -1 1 0 4 4 4 3 2 2 5 3 3 2 2 1 1 -0 -0 -2 -4
-5 -5 -4 -5 -3 -3 -3 -2 0 0 1 3 4 3 4 6 6 6 3 5 3 2 1 -2 1 1 1 3 2 3 3 5 4 5 4 4 4 4 5 2 1 1 -0 -0 -0 -1 -2
-3 -4 -4 -4 -5 -4 -4 -3 0 1 1 3 3 5 5 6 6 4 3 4 3 3 4 -1 -1 2 3 2 2 2 2 6 6 8 5 5 5 4 4 2 -0 -0 -3 -5 -2 -3 -4
-3 -4 -5 -4 -4 -5 -3 -1 1 1 2 2 3 5 6 6 5 3 4 4 4 2 2 4 5 2 2 2 6 5 4 -0 4 4 6 6 4 5 3 4 1 -2 -4 -2 -4 -2 -3
-5 -5 -6 -3 -3 -2 -1 -0 1 1 2 2 4 6 7 8 6 2 3 3 6 4 7 6 5 3 3 8 4 5 6 3 5 2 3 2 3 2 4 4 1 1 -3 -4 -4 1 -1
-4 -5 -3 -2 -1 -1 -0 0 0 0 2 2 3 4 5 8 5 3 3 5 4 7 8 8 7 6 6 4 7 4 5 3 6 5 4 4 3 3 3 3 3 2 -4 -5 -1 1 -1
-5 -1 -1 -0 -0 -0 0 0 -1 -1 1 2 2 4 6 8 5 5 1 3 2 5 7 7 7 6 6 6 5 5 5 4 4 5 5 4 5 4 6 6 6 -3 -3 -3 2 -1 -2
-6 -3 -1 -1 -0 -0 0 -1 -1 0 1 2 3 3 5 5 7 7 3 1 1 3 5 5 3 6 7 7 6 5 5 4 4 4 3 5 5 5 4 4 2 -4 -3 -2 -3 -3 -2

GFSGBSN_850_dewp_021.txt.gz
Dewpoint
-31 -31 -31 -29 -21 -4 5 6 7 5 2 6 7 7 7 5 -4 -8 -8 -7 -5 -3 -4 -6 -7 -7 -9 -11 -7 -0 -5 -13 -14 -12 -7 -6 -4 -3 -4 -7 -8 -8 -8 -8 -9 2 3
-29 -30 -31 -32 -32 -31 -23 -5 3 6 6 2 5 4 7 7 -0 -7 -8 -6 -4 -2 -3 -6 -7 -7 -9 -6 1 1 -3 -9 -11 -8 -7 -6 -5 -4 -3 -5 -6 -5 -4 -6 -4 2 4
-20 -23 -23 -28 -30 -32 -32 -31 -24 -5 6 5 2 2 3 8 5 -4 -7 -6 -4 -1 -3 -6 -7 -8 -10 -19 0 1 -1 -5 -9 -10 -7 -7 -5 -4 -4 -4 -4 -3 -7 -2 1 2 3
-17 -21 -25 -26 -26 -27 -30 -31 -31 -29 -5 5 3 1 1 7 7 -1 -6 -6 -3 -1 -3 -7 -8 -9 -12 -18 -4 -2 -3 -2 -3 -5 -4 -4 -3 -3 -3 -4 -3 -4 -8 1 -1 0 2
-1 -16 -21 -24 -26 -27 -26 -29 -29 -31 -21 -3 3 1 0 4 8 3 -6 -6 -2 -0 -4 -7 -8 -6 -11 -11 -9 -5 -3 -3 -2 -1 -2 -3 -3 -4 -3 -2 -3 -5 -5 -2 -0 -2 2
2 2 -0 -11 -21 -25 -27 -27 -28 -29 -30 -10 5 -5 1 4 6 6 -6 -6 -2 -3 -0 1 -5 -5 -14 -5 -3 -3 -5 -4 -2 -1 -2 -2 -4 -3 -2 -2 -2 -3 -3 -2 -2 -3 0
2 2 2 2 2 -13 -25 -25 -25 -27 -29 -13 4 -1 3 4 4 7 -5 -3 -0 5 5 -2 -8 -11 -15 -4 -4 -5 -4 -5 -2 -2 -2 -3 -3 -1 -3 -2 -3 -2 -3 -3 -3 -5 -3
2 1 2 2 2 3 -1 -21 -21 -23 -27 -30 -7 2 2 4 4 7 -4 -1 2 4 3 1 0 2 0 2 0 -4 -4 -4 -3 -2 -3 -2 -2 -4 -3 -3 -2 -3 -3 -2 -3 -5 -5
0 2 2 1 2 2 2 1 -2 -13 -23 -29 -14 -3 3 2 7 7 -4 4 7 2 2 -0 -1 -1 -2 -1 -2 -3 -4 -5 -4 -2 -1 -1 -4 -4 -3 -3 -2 -2 -2 -2 -1 -6 -4
-2 -0 2 1 1 1 2 2 -0 -3 -14 -26 -27 -3 6 7 5 5 3 7 4 -1 4 3 5 -0 -1 -4 -3 -3 -4 -6 -6 -4 -3 -2 -4 -3 -3 -2 -2 -1 -3 -3 -2 -4 -0
-3 -3 -1 2 1 1 1 1 2 2 -5 -16 -24 -9 6 7 5 1 7 6 -1 5 1 -5 4 -2 -5 -4 -4 -4 -4 -6 -5 -5 -2 -2 -1 -2 -2 -3 -3 -1 -2 -2 -2 1 -1
-3 -4 -3 -1 2 1 0 1 1 2 2 1 -15 -8 6 7 6 1 7 7 7 5 3 0 1 -4 -4 -5 -4 -6 -4 -5 -7 -5 -4 -4 -3 -3 -3 -3 -3 -3 -3 -0 1 1 3
-2 -3 -5 -2 -1 2 0 0 1 1 1 2 -1 -3 6 6 6 5 4 6 8 7 -2 2 -1 -2 -4 -2 -3 -4 -5 -5 -4 -3 -2 -2 -3 -2 -2 -2 -3 -2 -0 2 1 4 4
-0 -2 -3 -5 -2 1 2 0 -0 1 1 1 2 3 5 5 6 5 2 8 9 5 4 2 -2 -1 -2 -2 -2 -3 -4 -4 -6 -5 -1 -1 0 -2 -1 -2 -1 -1 -1 3 3 5 2
1 -0 -2 -4 -4 -1 1 1 -0 -0 0 1 2 2 5 5 7 5 7 9 6 5 3 -2 -2 0 -0 -2 -3 -3 -3 -4 -5 -5 -3 1 0 1 -0 0 -2 -2 -1 -1 5 5 6
1 1 -1 -2 -6 -4 -0 1 1 -1 0 1 2 2 4 4 6 7 7 6 5 3 3 4 1 -1 1 -1 -2 -3 -2 -4 -4 -5 -5 -0 1 2 1 -0 -1 -2 -2 -0 3 5 5
1 1 1 -2 -5 -5 -0 1 1 -2 0 1 2 3 2 4 6 5 6 4 3 2 3 5 4 -0 -1 -1 -1 -2 -3 -5 -4 -5 -3 2 -1 -0 1 -0 -1 -0 -1 -1 1 3 3
1 1 1 -1 -5 -5 1 1 0 -2 -2 1 2 3 3 2 6 4 5 3 1 0 2 4 4 5 1 -2 -2 -1 -2 -4 -5 -0 -1 1 1 2 -0 -1 -1 -1 -1 -1 3 -0 3
1 1 1 0 -3 -3 1 1 0 -2 -1 0 1 3 3 2 6 5 3 3 2 1 2 3 4 3 -1 -1 -1 -1 -1 -3 -0 -1 1 2 2 3 2 0 -0 0 -1 0 1 1 3
1 1 1 0 -1 -3 0 -0 -0 -1 -3 1 1 3 4 4 4 3 3 4 5 3 2 2 4 4 3 -0 -1 2 2 2 2 1 -2 -2 1 1 2 1 1 1 0 -1 0 3 2
2 2 1 0 -0 -2 -1 -0 -1 -3 -4 0 2 1 2 4 4 3 2 2 4 4 2 0 3 5 5 3 1 1 4 3 2 1 2 1 1 -1 -2 -2 1 -0 -0 -1 -0 -1 1
1 2 1 0 -0 -1 -3 -1 -3 -4 -4 0 1 3 2 3 2 3 3 3 3 3 3 3 1 2 1 4 1 2 4 3 3 2 1 1 1 1 3 1 1 1 -0 -0 -0 -1 -1
1 1 1 0 -0 -2 -3 -2 -3 -3 -2 -0 1 2 2 2 2 3 3 2 2 2 2 1 2 3 4 3 0 -2 1 1 1 3 2 2 3 2 2 1 0 2 0 -0 -1 -2 -2
2 1 1 -0 -1 -3 -2 -2 -1 -2 -4 -1 1 2 4 2 3 3 1 1 1 1 1 0 -1 1 2 1 3 3 3 4 5 6 2 2 2 1 2 1 3 -0 -1 -2 -2 -2 -3
1 1 -0 -0 -1 -3 -3 -2 -2 -4 -4 -3 1 2 4 4 1 3 2 2 1 0 1 -1 -1 -4 -1 2 3 4 3 3 4 3 6 3 2 3 4 4 1 -0 -3 -2 -2 -2 -2
1 0 -0 -1 -3 -3 -3 -3 -5 -5 -4 -3 0 2 3 5 4 2 2 2 3 2 1 1 -1 -2 3 3 3 4 5 4 4 4 2 2 2 4 3 4 3 1 -2 -4 -3 1 -2
-0 -0 -1 -2 -3 -3 -4 -5 -7 -5 -5 -3 1 2 3 3 4 3 4 3 2 2 2 3 6 5 4 3 2 3 3 3 4 4 2 3 2 4 2 2 1 -2 -2 -5 -1 -1 -2
-1 -1 -2 -3 -4 -4 -6 -7 -8 -7 -4 -1 -0 2 2 2 3 5 4 3 3 2 3 3 6 6 3 4 4 3 3 3 3 2 2 4 4 3 2 1 2 -2 -2 -4 -3 -1 -2
-4 -4 -5 -5 -4 -4 -4 -8 -6 -3 -3 -0 0 2 2 3 3 3 5 4 5 2 2 5 3 6 5 5 4 3 3 1 3 5 3 2 2 3 2 2 -1 -1 -4 -5 -2 -2 -2

GFSGBSN_850_dewp_024.txt.gz
Dewpoint
-25 -24 -24 -24 -25 -24 -16 0 5 4 5 5 5 6 7 7 8 6 -4 -8 -8 -7 -5 -4 -7 -7 -8 -14 -9 -0 -4 -13 -12 -13 -5 -5 -5 -3 -4 -6 -8 -7 -8 -8 -8 1 4
-6 -20 -24 -17 -21 -28 -26 -26 -16 -2 3 5 6 6 2 5 6 7 1 -7 -7 -6 -4 -3 -6 -7 -8 -11 -0 0 -4 -10 -11 -7 -7 -6 -4 -3 -3 -4 -7 -6 -6 -4 -2 3 4
-6 -7 -11 -20 -24 -22 -27 -28 -28 -27 -13 -3 4 6 6 5 4 7 5 -4 -7 -6 -3 -3 -6 -7 -8 -12 -4 1 -1 -6 -9 -8 -7 -7 -5 -4 -4 -3 -4 -3 -5 -2 2 3 4
2 0 -1 -1 -18 -23 -26 -25 -27 -27 -29 -27 -6 4 5 5 5 6 7 -2 -7 -6 -3 -3 -6 -7 -9 -18 -10 1 -1 -2 -3 -7 -7 -6 -3 -3 -3 -4 -4 -5 -6 1 -0 1 2
3 2 2 1 2 -3 -15 -23 -25 -26 -27 -27 -25 -2 4 6 7 4 7 2 -7 -6 -3 -3 -4 -7 -9 -14 -15 -4 -3 -3 -3 -2 -3 -4 -3 -4 -3 -3 -4 -5 -5 -1 1 0 2
2 3 2 2 2 2 2 -4 -14 -24 -26 -27 -28 -11 1 7 7 6 5 3 -7 -4 -2 -0 1 -4 -13 -7 -4 -4 -4 -3 -2 -2 -1 -2 -4 -3 -3 -4 -1 -2 -3 -2 0 -1 1
-0 2 3 2 2 2 2 1 1 -11 -23 -25 -28 -17 -1 -1 7 6 4 -1 -2 3 4 2 -8 -9 -13 -7 -3 -4 -3 -4 -2 -2 -2 -3 -3 -1 -4 -3 -3 -2 -3 -3 -3 -5 0
-2 -1 1 2 3 2 2 3 2 0 -7 -20 -26 -25 -1 1 7 7 6 -2 2 3 4 -3 -1 1 1 2 1 -3 -3 -3 -2 -2 -3 -2 -1 -4 -4 -3 -2 -2 -3 -2 -3 -6 -4
-2 -4 -2 -0 1 2 1 2 2 3 1 -4 -22 -27 -5 4 7 7 6 -0 4 7 5 -1 -2 -0 -2 -2 -2 -3 -4 -3 -3 -2 -2 -1 -3 -4 -3 -3 -2 -2 -2 -2 -2 -5 -2
-1 -2 -5 -2 -1 1 2 1 2 2 2 2 -10 -25 -4 6 7 4 3 5 6 7 2 1 3 1 -0 -2 -2 -5 -4 -5 -5 -4 -2 -2 -3 -3 -3 -2 -3 -2 -3 -3 -2 -4 -1
-2 -1 -2 -5 -3 -1 1 2 0 2 2 1 -3 -11 -7 6 6 3 5 6 1 3 1 -4 4 0 -1 -3 -4 -4 -3 -5 -5 -5 -4 -4 -2 -2 -2 -3 -3 -3 -2 -2 -2 -0 -0
-1 -0 -1 -2 -5 -3 -1 2 1 1 1 2 1 -5 -7 5 6 2 7 4 6 5 2 -5 1 1 -1 -4 -4 -4 -3 -5 -6 -6 -3 -4 -4 -3 -3 -4 -3 -3 -3 -1 0 1 3
0 0 -0 -1 -3 -5 -3 1 2 1 1 1 2 2 -3 5 5 3 5 4 9 6 -3 -2 2 -3 -3 -3 -3 -5 -4 -4 -4 -2 -2 -3 -3 -3 -2 -2 -3 -2 -1 2 2 4 3
0 1 0 0 -1 -3 -5 -3 1 1 0 1 1 2 -1 5 5 6 6 7 8 4 0 1 -1 -3 -3 -4 -4 -3 -4 -3 -6 -4 -1 -0 -0 -2 -2 -2 -2 -1 -0 3 2 4 1
0 1 1 1 1 -1 -4 -5 -1 2 -0 1 1 2 -0 4 5 6 6 7 6 4 3 1 -2 -1 -1 -3 -3 -3 -2 -3 -5 -5 -3 -0 -1 -1 -0 -0 -2 -2 -1 -2 4 5 5
0 1 1 1 1 1 -2 -6 -2 2 0 -0 -0 1 1 3 5 6 6 5 4 2 3 4 1 -0 1 -0 -2 -2 -2 -4 -5 -5 -5 -2 -1 1 0 -0 -1 -2 -1 1 2 4 5
1 1 1 1 1 1 -1 -3 -5 1 1 -1 1 1 -0 3 5 6 5 4 3 2 3 5 5 5 -0 -0 -1 -1 -1 -5 -4 -5 -4 -0 -2 -2 2 1 -1 -0 -1 -0 1 2 3
1 1 1 1 1 1 0 -2 -6 -1 1 -1 1 1 0 2 5 4 3 3 1 2 2 3 4 5 5 -1 -1 -1 -2 -3 -6 -2 -2 0 -0 1 -0 -2 -1 -2 -1 -0 3 1 3
-1 -1 1 1 1 1 1 -2 -6 -2 1 -0 1 1 1 3 4 4 2 2 2 1 1 3 4 4 2 -1 -1 -1 -2 -4 -3 -3 -0 1 -0 1 -1 -2 -1 -0 -1 -0 0 1 3
-5 -5 -4 1 2 1 1 -1 -4 -3 0 -1 1 1 3 3 -1 1 2 3 3 2 2 2 4 4 4 3 -0 -2 -1 1 -0 -3 -2 -3 1 -2 -1 -3 -0 1 -0 0 0 3 2
-3 -3 -5 -3 2 1 1 -1 -2 -0 1 -0 1 0 2 3 2 2 1 1 3 3 2 1 3 4 4 4 1 2 3 3 2 2 0 -1 -0 -1 -2 -2 0 0 -0 1 0 0 1
-1 -2 -2 -3 2 1 1 -1 -1 -0 -0 -0 1 1 1 2 1 2 3 2 3 2 4 4 3 2 4 5 2 1 3 3 2 2 1 0 1 -1 2 1 1 1 -0 -0 -1 -1 -1
-0 -1 -1 -2 2 1 0 -2 -1 -0 -1 0 0 0 2 0 2 2 2 2 2 1 2 1 1 1 3 2 -0 -1 -0 1 2 2 2 1 2 2 2 1 0 2 1 0 -0 -1 -1
0 -0 -0 -1 2 1 0 -0 0 0 -1 -1 -0 1 2 2 2 1 -0 1 2 2 2 1 1 2 0 -0 2 3 3 4 4 4 1 1 1 1 2 1 2 -0 -2 -2 -1 -2 -3
1 -1 0 -1 1 1 -0 -1 -1 -1 -2 -3 -2 0 3 2 1 2 1 1 1 0 2 2 1 -0 -0 2 4 4 3 3 3 3 4 1 1 3 3 3 0 -0 -2 -1 -1 -2 -3
-0 1 -1 1 1 0 -0 -1 -2 -1 -1 -2 -2 -1 2 3 2 1 1 0 1 1 1 1 1 -1 -0 3 3 6 7 5 5 3 2 1 1 3 1 3 3 1 -2 -4 -4 -0 -2
1 -1 0 1 0 -0 -0 -1 -1 -2 -2 -2 -3 1 1 2 3 2 2 2 0 0 1 1 0 2 1 1 3 4 4 3 5 5 4 3 2 3 1 2 2 -0 -3 -5 -1 -0 -2
-2 0 1 0 0 -0 -1 -2 -2 -2 -2 -1 -2 -1 1 2 2 3 2 1 1 1 2 2 3 4 3 4 5 3 3 3 3 3 4 5 5 3 1 1 5 -3 -3 -1 -1 -4 -3
1 0 -0 -0 -0 -1 -2 -2 -2 -1 -1 -1 -3 -5 1 1 3 3 4 4 2 1 1 1 1 5 4 5 3 2 4 1 2 4 2 4 3 4 3 3 -0 -2 -3 -5 -5 -4 -3

GFSGBSN_850_dewp_030.txt.gz
Dewpoint
4 2 0 -1 -5 -9 -14 -17 -23 -24 -23 -17 -10 -5 0 3 4 4 4 3 3 6 2 -6 -8 -6 -6 -3 -9 -8 -2 -12 -13 -8 -5 -5 -4 -4 -5 -5 -5 -5 -6 -6 -5 -4 4
1 3 3 2 -0 -1 -5 -12 -20 -15 -26 -26 -25 -21 -11 -0 4 3 3 0 0 6 5 -4 -8 -7 -2 -4 -13 -2 -5 -12 -13 -4 -4 -4 -3 -3 -3 -4 -4 -4 -5 -4 -3 1 5
2 2 3 3 3 2 1 -0 -8 -21 -24 -25 -27 -28 -24 -14 -1 1 1 0 -0 4 7 1 -7 -6 -3 -5 -13 -1 -6 -10 -12 -5 -4 -5 -4 -3 -3 -3 -3 -4 -3 -3 -2 3 3
1 1 1 2 3 3 3 2 -1 -6 -17 -25 -25 -26 -27 -25 -20 -3 -0 -4 -1 3 6 5 -6 -5 -0 -9 -13 -4 -3 -8 -9 -8 -6 -5 -4 -2 -2 -3 -4 -4 -5 -2 -0 2 3
1 0 1 1 1 2 3 3 3 1 -3 -11 -20 -24 -26 -27 -27 -10 -1 -8 -1 -0 3 2 -4 -3 -3 -9 -12 -8 0 -2 -5 -7 -8 -4 -2 -2 -3 -5 -5 -4 -4 -2 -1 0 2
-0 0 0 0 -0 1 2 2 3 2 1 -0 -10 -10 -20 -25 -25 -11 -4 -5 -1 -2 0 -1 2 1 -4 -8 -7 -12 -1 -1 -1 -2 -2 -3 -2 -3 -5 -6 -4 -4 -4 -4 -1 0 1
-0 -1 0 -0 -0 -2 -0 1 2 3 2 2 0 -11 -13 -20 -23 -5 -3 2 4 3 2 2 0 -1 -9 -5 -3 -2 -7 -2 -2 -1 -1 -1 -1 -3 -7 -6 -4 -3 -4 -5 -4 -2 0
-0 -0 -1 -2 -1 -0 -1 -1 1 3 3 2 3 0 -3 -13 -18 -3 -1 5 5 3 3 2 -4 0 -1 -4 -1 -1 -1 -2 -1 -0 -2 -1 -1 -6 -5 -5 -3 -2 -3 -3 -4 -4 -2
-1 -0 0 -0 -1 -2 -0 -1 -3 1 3 2 2 3 2 -5 -10 -4 -3 4 3 3 6 2 3 0 -0 -2 -2 -3 -1 -2 -2 -2 -1 -2 -4 -4 -4 -2 -2 -2 -3 -2 -3 -3 -4
-2 -2 -1 -0 1 -0 -2 -1 -2 -4 1 3 2 2 3 2 -6 1 1 -0 1 6 4 -4 -1 -0 0 -2 -2 -4 -2 -3 -3 -2 -3 -2 -4 -4 -3 -3 -3 -2 -4 -3 -2 -2 -2
-0 -1 -2 -2 -2 -1 -0 -1 -2 -2 -4 2 2 2 2 2 5 5 5 3 4 5 -3 -6 1 2 2 -3 -5 -2 -3 -3 -3 -3 -2 -3 -4 -3 -2 -4 -4 -4 -3 -3 -2 -2 -1
-0 -0 -0 -0 -1 -1 -2 -1 -1 -2 -2 -2 2 1 2 2 3 4 5 5 5 6 -0 -5 1 3 2 -0 -4 -3 -3 -4 -5 -5 -4 -5 -5 -4 -5 -4 -4 -3 -2 -1 -1 -1 1
1 -0 -1 -0 -0 -0 0 0 -1 -1 -2 -5 -1 2 1 1 2 5 6 6 6 5 -5 -6 1 2 0 -1 -3 -4 -3 -2 -3 -1 -1 -4 -4 -5 -4 -3 -2 -2 -2 0 1 2 2
1 1 0 -0 1 0 0 -0 0 -1 -1 -3 -4 0 1 -0 1 4 5 7 3 -6 -3 -2 -1 0 0 -4 -4 -3 -4 -3 -5 -5 -4 -2 -1 -4 -3 -3 -2 -1 -3 0 3 3 -1
2 1 1 1 1 0 0 1 0 1 -0 -2 -5 -1 1 0 -2 3 5 6 -4 -5 -4 -2 -3 1 1 -4 -5 -3 -3 -4 -4 -4 -3 -2 -3 -4 -2 -2 -3 -1 -0 -3 2 4 1
2 1 2 2 1 1 1 1 1 1 0 -1 -4 -0 2 1 -0 2 4 3 -5 -5 -3 -4 -2 -3 -0 -1 -4 -3 -2 -4 -4 -5 -6 -3 -2 -3 -0 -1 -1 -1 -2 1 1 3 2
2 1 2 1 2 1 1 1 1 1 1 -1 -1 0 1 -0 1 2 4 2 -4 -4 -2 2 -1 -3 -2 0 -3 -3 -3 -3 -4 -4 -6 -5 -4 1 1 1 -2 0 -0 -1 -0 1 1
2 2 1 0 1 2 1 1 1 1 1 0 -0 1 1 -0 1 1 3 0 -4 -5 -0 1 2 1 2 -1 -1 -3 -3 -4 -4 -5 -2 -4 -3 -1 -3 -2 -1 -3 -2 -1 2 1 2
0 1 -0 -2 -0 2 1 2 2 1 1 0 -0 1 1 0 2 2 -1 -1 -2 -3 -2 2 2 2 3 3 1 -1 -3 -3 -3 -3 -4 -2 -1 1 -2 -1 -1 -1 -1 -1 0 1 0
-2 -4 -4 -6 -5 -1 2 2 2 1 1 0 0 1 2 1 -2 -1 -2 -2 -1 -2 -3 -0 1 2 4 4 2 1 -1 -0 -2 -4 -3 -3 -4 -2 -0 -4 -5 -0 -2 -1 -1 2 -0
-1 -2 -2 -3 -4 -4 1 2 2 1 1 -0 0 1 1 2 1 -2 -2 -2 -0 -1 -2 -2 1 1 3 4 3 2 -0 3 -0 -1 -3 -1 -2 -3 -5 -6 -6 -5 -5 -3 -2 -2 -1
-2 -2 -1 -0 -2 -4 -4 2 1 1 0 -0 0 1 0 0 -2 -3 -2 -3 -1 -3 -4 -0 1 1 1 3 1 4 2 1 3 2 -0 -0 -1 -1 -1 -4 -3 -3 -5 -6 -5 -5 -5
-1 -0 -1 -0 -0 -2 -4 -3 2 1 0 -0 -0 -1 -2 -3 -0 -1 -0 -2 -3 -2 -4 -5 -4 -1 0 1 -0 3 3 2 1 3 2 2 1 1 0 1 0 3 0 -3 -3 -4 -3
-1 -0 -0 -0 0 -1 -2 -4 2 1 -0 -1 -1 -1 0 0 -0 -1 -3 -3 -3 -3 -2 -4 -2 1 1 1 2 1 0 3 3 3 2 4 3 3 3 5 9 -2 -2 -3 -3 -4 -3
-1 -1 -1 0 -0 -1 -2 -3 -1 0 -0 -1 -1 1 -1 2 -1 -3 -2 -3 -4 -4 -3 -3 1 -0 -0 2 1 0 2 5 5 4 4 2 3 4 9 4 -0 -1 -1 -1 0 -1 -3
-1 0 0 0 -1 -1 -1 -3 0 0 0 0 -1 0 -0 -0 -1 -2 -1 -2 -1 -1 0 -2 -0 2 2 4 4 4 3 -1 4 5 2 2 3 6 5 5 8 -1 -3 -3 -3 1 -4
-1 -0 -0 -0 -1 0 -2 -3 0 0 -0 0 -0 -1 -0 -2 -1 -1 1 2 -3 -3 -0 -0 2 2 3 5 8 6 3 -2 0 7 7 5 5 7 6 7 2 -1 -3 -3 2 1 -2
0 -0 -1 -1 -1 0 -3 -2 0 0 -0 -0 -1 -2 -0 -1 1 2 1 0 -3 -3 2 -1 2 3 4 5 5 5 7 5 2 1 6 5 7 8 5 9 8 -1 -2 1 -0 1 -1
-0 -0 0 -0 -0 -0 -2 -1 1 -0 -0 -0 -0 -1 -2 -0 2 0 1 3 2 -3 -2 1 -2 -1 1 2 3 3 8 7 3 6 3 6 4 5 4 3 1 -1 -2 -2 0 -1 -1

GFSGBSN_850_dewp_033.txt.gz
Dewpoint
0 1 4 4 3 -0 -4 -10 -19 -23 -25 -25 -25 -22 -17 -12 -4 1 1 0 -1 -1 -0 1 3 -7 -9 -0 -5 -7 -4 -13 -15 -10 -6 -8 -7 -6 -6 -8 -7 -7 -7 -7 -6 -5 1
2 2 1 3 4 4 2 1 -5 -11 -21 -25 -26 -27 -25 -27 -23 -9 -2 -3 -3 -2 -0 1 4 -3 0 -0 -4 -8 -2 -13 -5 -4 -4 -5 -5 -5 -4 -6 -5 -5 -6 -6 -6 -3 1
1 1 2 2 2 3 4 3 2 -1 -6 -17 -25 -26 -27 -27 -30 -26 -15 -10 -5 -0 -2 -0 5 2 1 -2 -4 -0 -1 -4 -4 -3 -4 -5 -5 -4 -4 -5 -5 -6 -5 -6 -5 -2 -1
1 1 1 0 1 2 2 3 3 3 1 -2 -13 -21 -24 -26 -28 -30 -28 -17 -7 -3 -5 -3 3 0 1 -3 -6 -1 1 -3 -3 -4 -4 -4 -4 -3 -3 -5 -6 -6 -6 -1 0 -2 -1
0 0 1 1 0 1 1 2 2 3 3 3 2 -6 -17 -24 -26 -29 -28 -16 -8 -7 -3 -4 1 3 -0 -2 -7 -4 1 -4 -4 -4 -4 -4 -4 -4 -4 -4 -6 -6 -4 2 2 -4 -1
1 1 -0 1 1 1 0 -0 1 1 3 3 3 3 -3 -12 -25 -27 -28 -11 -8 -5 1 -1 4 3 0 -5 -7 -8 1 -2 -4 -4 -5 -4 -4 -4 -6 -6 -4 -4 -6 -4 -0 -1 -2
1 0 -0 -0 -1 -0 0 -0 -2 -1 1 3 2 3 3 -2 -17 -24 -24 4 5 6 5 -2 -0 -6 -7 -6 -3 -7 -1 -0 -2 -2 -2 -2 -2 -2 -5 -7 -8 -4 -5 -4 -3 -0 -3
0 0 0 0 -0 -0 -1 -1 -1 -1 -1 1 3 2 3 2 0 -13 -9 3 1 5 -1 -3 -1 -1 -1 -3 -3 -6 -4 -0 -1 -1 -2 -1 -1 -5 -7 -9 -7 -5 -5 -5 -5 -6 -5
-0 -0 -1 -1 -1 -0 0 -0 -1 -1 -1 -1 3 3 2 3 3 -8 -1 2 4 5 2 -3 -4 -3 -4 -3 -4 -6 -3 -3 -2 -2 -3 -2 -4 -6 -6 -6 -5 -5 -5 -3 -4 -4 -6
-1 -1 -1 -0 -1 -0 -0 -1 0 -1 -1 -4 0 3 2 2 -0 -1 3 2 4 5 2 -7 -2 -1 -2 -3 -3 -6 -5 -4 -4 -3 -4 -3 -5 -5 -6 -5 -6 -4 -7 -4 -4 -4 -2
-1 -1 -1 -1 -1 -1 -1 -0 -2 -1 -2 -2 -3 0 2 1 3 4 3 4 5 6 -3 -10 -6 -1 -3 -3 -10 -5 -6 -5 -3 -4 -4 -2 -3 -4 -4 -5 -6 -4 -4 -4 -4 -3 -3
0 0 -0 -0 -1 -1 0 0 -1 -1 -1 -2 -2 -3 2 2 2 2 6 7 7 3 -2 -7 -1 -0 0 -3 -9 -7 -6 -5 -5 -5 -5 -4 -6 -6 -6 -7 -6 -6 -3 -3 -3 -2 2
1 1 1 1 1 -0 -0 1 0 -1 -1 -1 -2 -4 -0 2 2 1 5 6 4 -0 -14 -9 -2 -0 -0 -1 -5 -6 -4 -2 -2 -1 -2 -3 -5 -7 -6 -4 -4 -4 -3 1 2 3 3
1 1 1 1 1 1 1 1 1 0 -0 -1 -1 -3 -3 2 2 2 5 6 -0 -8 -9 -5 -7 -1 1 -3 -2 -4 -3 -3 -5 -5 -3 -2 -1 -5 -5 -4 -3 -3 -3 1 7 8 3
1 1 1 1 1 1 1 1 1 1 0 -0 -1 -0 1 0 2 2 3 6 1 -8 -13 -9 -5 0 0 -3 -4 -4 -3 -4 -6 -6 -3 -2 -3 -7 -6 -6 -6 -3 -0 -5 -1 1 3
1 1 1 1 1 1 1 1 1 1 1 0 1 1 -0 0 1 2 3 4 -0 -7 -13 -10 -5 -3 -0 -2 -4 -4 -3 -6 -6 -8 -6 -5 -2 -6 -5 -5 -4 -3 -3 0 0 7 5
0 0 0 0 1 1 1 2 1 1 1 1 1 1 -1 2 2 3 3 2 -2 -5 -10 -11 -5 -3 -3 -1 -3 -4 -3 -6 -7 -8 -7 -4 -3 -4 -3 -2 -3 -2 -0 -1 -2 -0 4
-0 1 1 0 1 1 1 2 2 2 1 1 1 2 -1 -0 3 2 2 0 -5 -5 -9 -6 -3 -2 -4 -4 -0 -4 -4 -5 -7 -7 -4 -4 -3 0 -1 -4 -6 -4 -2 -1 3 3 3
-0 -1 1 1 2 1 1 2 2 2 2 1 1 1 0 1 3 3 -0 -3 -5 -8 -4 -6 -4 -0 -0 -3 -1 -1 -4 -6 -4 -4 -4 -3 -2 2 -0 -4 -4 -2 -1 -1 -0 0 5
-1 -1 -1 -0 1 1 1 1 1 2 2 1 1 2 2 2 1 -0 -1 -2 -3 -7 -8 -6 -6 -3 -2 2 -0 -0 -1 -3 -5 -4 -5 -3 -3 -1 2 -2 -4 -2 -3 -3 -1 5 3
-1 -1 -2 -2 -2 -2 0 -1 0 2 2 1 0 1 2 2 2 0 -2 -4 -4 -6 -10 -7 -5 -1 -0 -2 -2 -0 0 -1 -0 -2 -2 -1 1 -1 -3 -5 -6 -6 -5 -4 -2 -2 2
-4 -3 -2 -2 -2 -2 -3 -4 -2 2 2 1 -0 0 1 0 1 -0 -1 -3 -5 -7 -8 -4 -3 -2 2 4 0 4 2 2 -1 -1 -0 -1 1 -1 -3 -5 -7 -6 -7 -6 -5 -4 -4
-2 -2 -2 -0 -1 -2 -1 -3 -6 2 2 1 -0 -1 -2 -2 1 0 0 -2 -5 -6 -8 -7 -6 -4 -2 -2 1 5 4 4 3 3 2 0 3 2 3 -3 -4 1 -4 -5 -6 -7 -6
0 -0 -1 -0 0 -1 -1 -1 -3 -3 1 0 -1 -2 0 1 2 -0 -3 -4 -5 -7 -7 -9 -8 -4 -3 -0 1 1 2 0 4 2 1 2 3 4 4 7 7 -1 -5 -5 -4 -5 -7
-2 -1 0 -0 0 -0 -1 -0 -1 -4 2 1 -0 -2 -0 3 -0 -1 -3 -4 -6 -8 -5 -6 -8 -7 -5 -1 1 1 4 3 3 0 1 3 5 6 7 5 -0 -3 -4 -3 -3 -4 -6
-1 -1 -1 -1 -1 -1 -1 0 -0 -3 -1 0 0 -2 -1 1 1 -3 -3 -4 -3 -4 -2 -5 -6 -1 0 2 1 -0 -2 -3 3 4 1 2 5 7 6 6 6 -0 -4 -5 -5 1 -6
-1 -0 0 -0 -0 0 0 0 -1 -3 -1 0 1 -1 -1 -0 -1 -2 -1 -2 -6 -4 -1 0 2 3 1 5 7 2 1 -6 0 8 7 7 7 9 8 6 2 -3 -5 -5 3 1 -5
-1 -0 0 -1 -1 0 -0 0 -2 -3 0 0 0 0 -0 1 -0 2 0 -3 -5 -3 1 -2 1 3 4 4 2 -1 4 0 -1 -3 6 7 7 8 7 7 8 -4 -2 -0 -2 -4 -2
1 0 0 0 -0 0 0 -1 -1 -2 -0 0 1 1 1 1 3 2 1 1 -2 -5 -3 -1 -0 1 -0 -0 1 -1 6 8 0 3 -1 4 6 5 3 3 1 -1 -3 -3 -5 -3 -0